TimeCST,TemperatureF,Dew PointF,Humidity,Sea Level PressureIn,VisibilityMPH,Wind Direction,Wind SpeedMPH,Gust SpeedMPH,PrecipitationIn,Events,Conditions,WindDirDegrees,DateUTC
12:53 AM,32.0,28.0,85,29.80,4.0,North,12.7,20.7,N/A,,Overcast,350,2013-02-26 06:53:00
1:53 AM,32.0,28.0,85,29.81,4.0,North,12.7,-,N/A,,Overcast,350,2013-02-26 07:53:00
2:53 AM,30.9,27.0,85,29.77,4.0,North,18.4,27.6,N/A,,Overcast,360,2013-02-26 08:53:00
3:53 AM,30.9,27.0,85,29.77,4.0,North,13.8,21.9,N/A,,Overcast,350,2013-02-26 09:53:00
4:53 AM,30.9,26.1,82,29.76,4.0,NNW,13.8,23.0,N/A,,Haze,340,2013-02-26 10:53:00
5:53 AM,30.9,26.1,82,29.78,4.0,North,13.8,23.0,N/A,,Haze,350,2013-02-26 11:53:00
6:45 AM,30.2,26.6,86,29.76,2.5,North,11.5,21.9,0.00,Snow,Light Snow,360,2013-02-26 12:45:00
6:53 AM,30.0,26.1,85,29.78,1.8,North,15.0,-,0.00,Snow,Light Snow,360,2013-02-26 12:53:00
7:10 AM,30.2,26.6,86,29.76,0.8,North,12.7,-,0.00,Snow,Light Snow,360,2013-02-26 13:10:00
7:24 AM,30.2,26.6,86,29.76,0.5,North,13.8,-,0.00,Fog-Snow,Snow,360,2013-02-26 13:24:00
7:53 AM,30.0,27.0,88,29.78,0.5,North,13.8,-,0.00,Fog-Snow,Snow,350,2013-02-26 13:53:00
8:03 AM,30.2,26.6,86,29.75,0.2,North,15.0,20.7,0.00,Fog-Snow,Snow,350,2013-02-26 14:03:00
8:19 AM,30.2,26.6,86,29.75,0.5,North,15.0,21.9,0.00,Fog-Snow,Snow,350,2013-02-26 14:19:00
8:53 AM,30.0,27.0,88,29.77,0.5,North,15.0,23.0,0.00,Fog-Snow,Snow,350,2013-02-26 14:53:00
9:34 AM,30.2,28.4,93,29.74,0.5,North,17.3,24.2,0.00,Fog-Snow,Snow,350,2013-02-26 15:34:00
9:53 AM,30.9,28.0,89,29.76,0.5,North,17.3,24.2,0.00,Fog-Snow,Snow,360,2013-02-26 15:53:00
10:01 AM,30.2,28.4,93,29.74,0.5,North,19.6,26.5,0.00,Fog-Snow,Snow,350,2013-02-26 16:01:00
10:32 AM,32.0,28.4,87,29.73,1.0,North,17.3,26.5,0.01,Snow,Light Snow,350,2013-02-26 16:32:00
10:35 AM,32.0,28.4,87,29.73,0.8,North,19.6,27.6,0.01,Snow,Light Snow,350,2013-02-26 16:35:00
10:53 AM,32.0,28.0,85,29.75,0.8,North,18.4,28.8,0.01,Snow,Light Snow,350,2013-02-26 16:53:00
11:27 AM,32.0,28.4,87,29.73,1.0,North,17.3,28.8,0.00,Snow,Light Snow,350,2013-02-26 17:27:00
11:33 AM,32.0,28.4,87,29.73,0.8,NNW,17.3,26.5,0.00,Snow,Light Snow,340,2013-02-26 17:33:00
11:45 AM,32.0,28.4,87,29.72,0.8,NNW,17.3,25.3,0.01,Snow,Light Snow,340,2013-02-26 17:45:00
11:53 AM,32.0,28.9,88,29.75,0.8,North,17.3,25.3,0.01,Snow,Light Snow,350,2013-02-26 17:53:00
12:03 PM,32.0,28.4,87,29.73,1.0,NNW,16.1,27.6,0.00,Snow,Light Snow,340,2013-02-26 18:03:00
12:28 PM,32.0,28.4,87,29.73,1.8,NNW,17.3,29.9,0.00,Snow,Light Snow,340,2013-02-26 18:28:00
12:30 PM,32.0,28.4,87,29.73,1.8,North,17.3,27.6,0.00,Snow,Light Snow,350,2013-02-26 18:30:00
12:38 PM,32.0,28.4,87,29.73,1.8,NNW,15.0,26.5,0.00,Snow,Light Snow,340,2013-02-26 18:38:00
12:42 PM,33.8,28.4,81,29.73,2.0,North,17.3,26.5,0.00,Snow,Light Snow,350,2013-02-26 18:42:00
12:49 PM,32.0,28.4,87,29.72,2.0,North,13.8,25.3,0.00,Snow,Light Snow,350,2013-02-26 18:49:00
12:53 PM,32.0,28.9,88,29.75,1.5,North,18.4,26.5,0.00,Snow,Light Snow,350,2013-02-26 18:53:00
1:07 PM,32.0,28.4,87,29.72,1.2,NNW,13.8,26.5,0.00,Snow,Light Snow,340,2013-02-26 19:07:00
1:14 PM,32.0,28.4,87,29.72,1.2,NNW,16.1,25.3,0.00,Snow,Light Snow,340,2013-02-26 19:14:00
1:22 PM,32.0,28.4,87,29.72,1.0,NNW,13.8,25.3,0.00,Snow,Light Snow,340,2013-02-26 19:22:00
1:42 PM,32.0,28.4,87,29.70,1.2,NNW,16.1,26.5,0.00,Snow,Light Snow,340,2013-02-26 19:42:00
1:53 PM,32.0,28.9,88,29.73,1.5,NNW,16.1,25.3,0.00,Snow,Light Snow,340,2013-02-26 19:53:00
2:22 PM,33.8,28.4,81,29.72,2.5,North,11.5,21.9,0.00,Snow,Light Snow,350,2013-02-26 20:22:00
2:39 PM,33.8,28.4,81,29.72,1.8,North,16.1,23.0,0.00,Snow,Light Snow,350,2013-02-26 20:39:00
2:48 PM,33.8,28.4,81,29.72,2.0,NNW,11.5,21.9,0.00,Snow,Light Snow,340,2013-02-26 20:48:00
2:53 PM,33.1,28.9,85,29.75,2.5,NNW,16.1,24.2,0.00,Snow,Light Snow,340,2013-02-26 20:53:00
3:03 PM,33.8,28.4,81,29.72,3.0,NNW,12.7,23.0,0.00,Snow,Light Snow,340,2013-02-26 21:03:00
3:53 PM,33.1,28.9,85,29.76,4.0,North,13.8,19.6,0.00,,Overcast,350,2013-02-26 21:53:00
4:02 PM,33.8,28.4,81,29.74,4.0,North,16.1,20.7,N/A,,Overcast,350,2013-02-26 22:02:00
4:53 PM,33.1,28.0,82,29.79,4.0,North,12.7,23.0,N/A,,Haze,350,2013-02-26 22:53:00
5:37 PM,32.0,28.4,87,29.78,1.8,North,13.8,-,0.00,Snow,Light Snow,350,2013-02-26 23:37:00
5:49 PM,32.0,28.4,87,29.78,1.0,North,12.7,-,0.00,Snow,Light Snow,350,2013-02-26 23:49:00
5:53 PM,32.0,28.9,88,29.81,1.0,North,12.7,18.4,0.00,Snow,Light Snow,350,2013-02-26 23:53:00
6:03 PM,32.0,28.4,87,29.78,1.2,North,11.5,23.0,0.00,Snow,Light Snow,350,2013-02-27 00:03:00
6:25 PM,32.0,28.4,87,29.79,2.0,North,11.5,-,0.00,Snow,Light Snow,350,2013-02-27 00:25:00
6:53 PM,32.0,28.9,88,29.83,2.5,North,13.8,20.7,0.00,Snow,Light Snow,350,2013-02-27 00:53:00
7:03 PM,32.0,28.4,87,29.81,3.0,North,15.0,-,0.00,Snow,Light Snow,350,2013-02-27 01:03:00
7:10 PM,32.0,28.4,87,29.81,2.5,North,13.8,-,0.00,Snow,Light Snow,350,2013-02-27 01:10:00
7:27 PM,30.2,28.4,93,29.82,3.0,North,10.4,-,0.00,Snow,Light Snow,350,2013-02-27 01:27:00
7:53 PM,30.9,28.0,89,29.86,2.5,NNW,10.4,-,0.00,Snow,Light Snow,340,2013-02-27 01:53:00
8:53 PM,30.9,28.0,89,29.89,2.0,NNW,9.2,17.3,0.00,Snow,Light Snow,330,2013-02-27 02:53:00
9:32 PM,30.2,28.4,93,29.87,1.8,NNW,9.2,-,0.00,Snow,Light Snow,330,2013-02-27 03:32:00
9:46 PM,30.2,28.4,93,29.87,2.0,NNW,9.2,18.4,0.00,Snow,Light Snow,340,2013-02-27 03:46:00
9:53 PM,30.9,28.0,89,29.90,1.8,NNW,10.4,-,0.00,Snow,Light Snow,340,2013-02-27 03:53:00
10:02 PM,30.2,28.4,93,29.88,1.2,NNW,8.1,-,0.00,Snow,Light Snow,330,2013-02-27 04:02:00
10:53 PM,30.2,28.4,93,29.89,1.2,NW,11.5,-,N/A,Snow,Light Snow,320,2013-02-27 04:53:00
11:01 PM,30.2,28.4,93,29.89,1.0,NNW,9.2,-,0.00,Snow,Light Snow,330,2013-02-27 05:01:00
11:23 PM,30.2,28.4,93,29.89,1.0,NNW,10.4,-,0.00,Snow,Light Snow,340,2013-02-27 05:23:00
11:39 PM,30.2,28.4,93,29.88,1.2,NW,10.4,-,0.00,Snow,Light Snow,320,2013-02-27 05:39:00
11:53 PM,30.0,28.0,92,29.91,1.5,NW,8.1,-,0.00,Snow,Light Snow,310,2013-02-27 05:53:00